GFSNIL_prec_precacc24_159.txt.gz
Total_Precipitation_Accumulation
0.09 0.05 0.03 0.01 0.02 0.02 0.06 0.06 0.03 0.06 0.04 0.06 0.06 0.02 0.06 0.07 0.08 0.11 0.08 0.08 0.06 0.03
0.02 0.01 0.00 0.02 0.01 0.00 0.03 0.06 0.34 0.24 0.14 0.05 0.05 0.01 0.11 0.16 0.14 0.13 0.14 0.12 0.12 0.15
0.00 0.00 0.00 0.03 0.04 0.01 0.07 0.09 1.02 0.75 0.13 0.09 0.08 0.07 0.23 0.25 0.19 0.19 0.15 0.12 0.20 0.27
0.03 0.01 0.01 0.02 0.01 0.02 0.05 0.13 0.22 0.29 0.08 0.12 0.06 0.04 0.20 0.23 0.14 0.19 0.15 0.09 0.11 0.06
0.05 0.04 0.03 0.01 0.00 0.00 0.03 0.02 0.04 0.05 0.09 0.15 0.10 0.08 0.18 0.17 0.05 0.13 0.15 0.10 0.07 0.03
0.07 0.02 0.04 0.01 0.00 0.00 0.02 0.02 0.02 0.07 0.18 0.15 0.09 0.13 0.14 0.30 0.16 0.09 0.10 0.07 0.15 0.16
0.14 0.06 0.01 0.00 0.00 0.01 0.01 0.01 0.02 0.08 0.11 0.14 0.20 0.15 0.17 0.22 0.19 0.17 0.08 0.13 0.19 0.10
0.28 0.18 0.14 0.07 0.04 0.00 0.01 0.00 0.00 0.07 0.14 0.27 0.28 0.24 0.30 0.25 0.13 0.15 0.11 0.29 0.17 0.21
0.59 0.79 0.42 0.22 0.17 0.15 0.08 0.09 0.07 0.07 0.10 0.22 0.27 0.28 0.23 0.21 0.27 0.20 0.20 0.27 0.26 0.45
0.75 0.65 0.48 0.24 0.19 0.19 0.16 0.22 0.16 0.19 0.16 0.19 0.14 0.13 0.24 0.37 0.36 0.21 0.15 0.22 0.21 0.31
1.10 0.94 0.78 0.54 0.40 0.41 0.40 0.22 0.26 0.25 0.26 0.27 0.37 0.45 0.42 0.48 0.37 0.11 0.11 0.15 0.11 0.14
0.97 1.29 1.36 1.21 1.03 0.97 0.80 0.67 0.65 0.67 0.66 0.61 0.39 0.70 0.57 0.43 0.22 0.15 0.13 0.11 0.08 0.07
0.52 0.62 0.78 1.07 1.24 1.22 1.15 1.04 1.01 0.94 0.88 0.93 0.80 0.92 0.80 0.50 0.20 0.14 0.09 0.03 0.04 0.05
0.85 0.70 0.70 0.72 1.12 1.16 1.26 1.09 0.88 0.78 1.10 0.88 0.85 0.81 0.72 0.54 0.37 0.33 0.10 0.05 0.01 0.02

GFSNIL_prec_precacc24_165.txt.gz
Total_Precipitation_Accumulation
0.12 0.06 0.04 0.01 0.04 0.04 0.07 0.07 0.04 0.06 0.04 0.05 0.06 0.03 0.10 0.09 0.09 0.14 0.11 0.10 0.05 0.01
0.03 0.02 0.02 0.02 0.02 0.01 0.05 0.11 0.36 0.20 0.14 0.05 0.06 0.02 0.13 0.19 0.17 0.15 0.14 0.12 0.12 0.11
0.02 0.02 0.00 0.02 0.06 0.03 0.11 0.12 1.03 0.75 0.13 0.11 0.13 0.07 0.22 0.26 0.20 0.21 0.16 0.16 0.24 0.20
0.05 0.02 0.04 0.05 0.03 0.04 0.06 0.14 0.21 0.29 0.08 0.13 0.08 0.05 0.20 0.23 0.15 0.21 0.15 0.11 0.14 0.08
0.15 0.08 0.05 0.03 0.07 0.04 0.03 0.03 0.07 0.08 0.10 0.18 0.13 0.09 0.19 0.20 0.07 0.13 0.15 0.10 0.09 0.06
0.12 0.08 0.05 0.01 0.02 0.03 0.02 0.02 0.05 0.10 0.17 0.16 0.10 0.10 0.13 0.32 0.20 0.10 0.10 0.07 0.15 0.16
0.19 0.13 0.05 0.01 0.00 0.01 0.01 0.01 0.02 0.08 0.11 0.13 0.16 0.13 0.17 0.24 0.19 0.14 0.08 0.13 0.20 0.13
0.31 0.23 0.21 0.13 0.07 0.03 0.02 0.01 0.01 0.07 0.13 0.21 0.18 0.20 0.22 0.19 0.08 0.12 0.10 0.17 0.13 0.22
0.59 0.85 0.48 0.28 0.22 0.23 0.13 0.08 0.04 0.01 0.01 0.13 0.16 0.14 0.06 0.11 0.16 0.14 0.15 0.17 0.22 0.42
0.61 0.65 0.46 0.25 0.24 0.26 0.21 0.18 0.09 0.04 0.05 0.06 0.09 0.05 0.05 0.11 0.25 0.18 0.11 0.13 0.16 0.27
0.95 0.79 0.65 0.39 0.23 0.23 0.33 0.24 0.21 0.26 0.27 0.19 0.15 0.22 0.21 0.30 0.26 0.09 0.10 0.15 0.14 0.17
0.47 1.02 1.10 0.97 0.80 0.73 0.75 0.68 0.44 0.41 0.55 0.51 0.33 0.57 0.59 0.67 0.27 0.15 0.13 0.10 0.11 0.10
0.12 0.23 0.45 0.82 0.99 0.99 0.97 0.93 1.03 1.02 1.03 1.11 0.79 1.05 1.03 0.81 0.39 0.22 0.13 0.04 0.05 0.05
0.07 0.06 0.09 0.20 0.62 0.93 1.09 1.17 1.18 1.05 1.31 1.11 1.11 1.05 1.09 1.03 0.92 0.76 0.41 0.12 0.04 0.07

GFSNIL_prec_precacc24_168.txt.gz
Total_Precipitation_Accumulation
0.12 0.06 0.04 0.01 0.04 0.04 0.07 0.07 0.04 0.09 0.04 0.04 0.05 0.03 0.10 0.09 0.09 0.14 0.11 0.10 0.06 0.01
0.03 0.02 0.02 0.02 0.02 0.01 0.05 0.11 0.36 0.21 0.14 0.05 0.03 0.01 0.12 0.18 0.17 0.15 0.15 0.15 0.12 0.13
0.02 0.02 0.00 0.02 0.06 0.03 0.11 0.12 1.03 0.75 0.12 0.11 0.13 0.08 0.21 0.18 0.18 0.21 0.16 0.20 0.24 0.18
0.05 0.02 0.04 0.05 0.03 0.04 0.06 0.14 0.21 0.29 0.08 0.13 0.08 0.06 0.21 0.21 0.14 0.21 0.15 0.11 0.14 0.06
0.15 0.08 0.05 0.03 0.07 0.04 0.03 0.03 0.07 0.08 0.10 0.18 0.13 0.09 0.20 0.21 0.09 0.15 0.17 0.11 0.09 0.06
0.12 0.08 0.05 0.01 0.02 0.03 0.02 0.02 0.05 0.10 0.16 0.17 0.10 0.09 0.10 0.29 0.19 0.12 0.12 0.08 0.15 0.16
0.19 0.13 0.05 0.01 0.00 0.01 0.01 0.01 0.02 0.08 0.11 0.10 0.13 0.07 0.12 0.23 0.21 0.15 0.08 0.13 0.20 0.15
0.31 0.23 0.21 0.13 0.07 0.03 0.02 0.01 0.01 0.07 0.09 0.09 0.09 0.12 0.18 0.18 0.08 0.12 0.10 0.17 0.13 0.24
0.60 0.87 0.48 0.28 0.22 0.23 0.13 0.08 0.04 0.01 0.01 0.06 0.07 0.11 0.06 0.11 0.16 0.14 0.15 0.17 0.20 0.36
0.53 0.62 0.43 0.24 0.24 0.26 0.21 0.18 0.09 0.03 0.02 0.03 0.08 0.03 0.03 0.06 0.21 0.18 0.11 0.13 0.15 0.26
0.82 0.68 0.58 0.36 0.22 0.22 0.33 0.23 0.21 0.22 0.21 0.16 0.07 0.08 0.12 0.24 0.20 0.09 0.10 0.14 0.13 0.17
0.35 0.71 0.85 0.87 0.75 0.68 0.74 0.68 0.42 0.34 0.44 0.33 0.15 0.38 0.54 0.70 0.27 0.15 0.12 0.10 0.11 0.10
0.07 0.12 0.25 0.64 0.88 0.85 0.81 0.81 0.87 0.82 0.83 0.91 0.63 0.95 0.97 0.85 0.43 0.20 0.10 0.03 0.05 0.04
0.04 0.05 0.05 0.10 0.33 0.61 0.80 0.86 0.92 0.84 1.15 1.02 1.06 1.04 1.12 1.10 0.94 0.78 0.42 0.13 0.05 0.07

GFSNIL_prec_precacc24_171.txt.gz
Total_Precipitation_Accumulation
0.12 0.06 0.04 0.01 0.04 0.04 0.07 0.07 0.04 0.09 0.04 0.04 0.05 0.03 0.10 0.08 0.07 0.13 0.11 0.08 0.04 0.07
0.03 0.02 0.02 0.02 0.02 0.01 0.05 0.11 0.36 0.21 0.14 0.05 0.03 0.01 0.11 0.16 0.09 0.11 0.08 0.13 0.09 0.12
0.02 0.02 0.00 0.02 0.06 0.03 0.11 0.12 1.03 0.75 0.12 0.11 0.13 0.08 0.19 0.16 0.14 0.14 0.10 0.19 0.25 0.19
0.05 0.02 0.04 0.05 0.03 0.04 0.06 0.14 0.21 0.29 0.08 0.14 0.10 0.06 0.21 0.21 0.13 0.15 0.13 0.16 0.22 0.12
0.15 0.08 0.05 0.03 0.07 0.04 0.03 0.03 0.07 0.08 0.10 0.18 0.15 0.12 0.25 0.24 0.10 0.20 0.21 0.17 0.15 0.12
0.12 0.08 0.05 0.01 0.02 0.03 0.02 0.02 0.04 0.09 0.15 0.17 0.11 0.09 0.10 0.26 0.19 0.11 0.11 0.10 0.18 0.19
0.19 0.13 0.05 0.01 0.00 0.01 0.01 0.01 0.01 0.04 0.07 0.07 0.07 0.07 0.07 0.20 0.16 0.07 0.07 0.13 0.21 0.16
0.31 0.23 0.21 0.13 0.07 0.03 0.02 0.01 0.00 0.03 0.02 0.02 0.02 0.07 0.11 0.10 0.04 0.10 0.10 0.17 0.13 0.18
0.60 0.87 0.48 0.28 0.22 0.23 0.13 0.08 0.04 0.01 0.00 0.02 0.01 0.02 0.01 0.03 0.08 0.12 0.14 0.16 0.19 0.35
0.53 0.62 0.43 0.25 0.24 0.26 0.21 0.18 0.09 0.02 0.01 0.01 0.03 0.00 0.00 0.01 0.12 0.13 0.09 0.13 0.15 0.26
0.80 0.66 0.55 0.33 0.23 0.25 0.33 0.23 0.20 0.21 0.19 0.13 0.05 0.07 0.06 0.10 0.11 0.08 0.08 0.12 0.13 0.17
0.33 0.70 0.82 0.80 0.74 0.68 0.74 0.68 0.42 0.34 0.44 0.33 0.14 0.35 0.42 0.56 0.16 0.05 0.06 0.05 0.08 0.09
0.07 0.12 0.24 0.59 0.80 0.79 0.80 0.81 0.87 0.81 0.81 0.88 0.59 0.90 0.91 0.79 0.41 0.20 0.10 0.02 0.03 0.03
0.03 0.04 0.04 0.08 0.30 0.55 0.73 0.78 0.85 0.76 1.08 0.95 1.00 1.00 1.10 1.09 0.94 0.78 0.42 0.13 0.05 0.07